Вернуться в каталог

STARLINK-4206

АктивенСвязьVLEO
NORAD 52847·PAYLOAD·🇺🇸 United States

Запущен Jun 17, 2022 с Cape Canaveral Space Force Station

Loading…

Ближайшие Пролёты (ближайшие 24 часа)

TLE

СвежийSource: CelesTrak SupGP

Эпоха: Sep 14, 2026, 21:33 UTC

1 52847C 22062T   26257.89840278  .00050970  00000+0  15058-2 0  2574
2 52847  53.1579 255.6614 0001180  92.3718 300.6189 15.34368190    15

Отслеживайте STARLINK-4206 в реальном времени с AllMySat

Download on the App Store